Year,Month,Day,Hour,Minute,Value (Times are PST for temperature in C)
2010,08,11,00,00,12.90
2010,08,11,00,01,12.80
2010,08,11,00,02,12.80
2010,08,11,00,03,12.80
2010,08,11,00,04,12.80
2010,08,11,00,05,12.80
2010,08,11,00,06,12.80
2010,08,11,00,07,12.80
2010,08,11,00,08,12.80
2010,08,11,00,09,12.80
2010,08,11,00,10,12.80
2010,08,11,00,11,12.80
2010,08,11,00,12,12.80
2010,08,11,00,13,12.80
2010,08,11,00,14,12.80
2010,08,11,00,15,12.80
2010,08,11,00,16,12.80
2010,08,11,00,17,12.80
2010,08,11,00,18,12.80
2010,08,11,00,19,12.80
2010,08,11,00,20,12.70
2010,08,11,00,21,12.70
2010,08,11,00,22,12.70
2010,08,11,00,23,12.70
2010,08,11,00,24,12.70
2010,08,11,00,25,12.70
2010,08,11,00,26,12.70
2010,08,11,00,27,12.70
2010,08,11,00,28,12.70
2010,08,11,00,29,12.70
2010,08,11,00,30,12.70
2010,08,11,00,31,12.70
2010,08,11,00,32,12.70
2010,08,11,00,33,12.70
2010,08,11,00,34,12.70
2010,08,11,00,35,12.70
2010,08,11,00,36,12.70
2010,08,11,00,37,12.70
2010,08,11,00,38,12.60
2010,08,11,00,39,12.60
2010,08,11,00,40,12.60
2010,08,11,00,41,12.60
2010,08,11,00,42,12.60
2010,08,11,00,43,12.60
2010,08,11,00,44,12.60
2010,08,11,00,45,12.50
2010,08,11,00,46,12.50
2010,08,11,00,47,12.50
2010,08,11,00,48,12.50
2010,08,11,00,49,12.50
2010,08,11,00,50,12.50
2010,08,11,00,51,12.50
2010,08,11,00,52,12.50
2010,08,11,00,53,12.50
2010,08,11,00,54,12.50
2010,08,11,00,55,12.50
2010,08,11,00,56,12.50
2010,08,11,00,57,12.50
2010,08,11,00,58,12.50
2010,08,11,00,59,12.50
2010,08,11,01,00,12.50
2010,08,11,01,01,12.50
2010,08,11,01,02,12.50
2010,08,11,01,03,12.50
2010,08,11,01,04,12.50
2010,08,11,01,05,12.50
2010,08,11,01,06,12.40
2010,08,11,01,07,12.40
2010,08,11,01,08,12.40
2010,08,11,01,09,12.40
2010,08,11,01,10,12.40
2010,08,11,01,11,12.40
2010,08,11,01,12,12.40
2010,08,11,01,13,12.40
2010,08,11,01,14,12.40
2010,08,11,01,15,12.40
2010,08,11,01,16,12.40
2010,08,11,01,17,12.40
2010,08,11,01,18,12.40
2010,08,11,01,19,12.40
2010,08,11,01,20,12.40
2010,08,11,01,21,12.40
2010,08,11,01,22,12.40
2010,08,11,01,23,12.40
2010,08,11,01,24,12.50
2010,08,11,01,25,12.50
2010,08,11,01,26,12.50
2010,08,11,01,27,12.40
2010,08,11,01,28,12.40
2010,08,11,01,29,12.40
2010,08,11,01,30,12.40
2010,08,11,01,31,12.40
2010,08,11,01,32,12.40
2010,08,11,01,33,12.40
2010,08,11,01,34,12.40
2010,08,11,01,35,12.40
2010,08,11,01,36,12.40
2010,08,11,01,37,12.40
2010,08,11,01,38,12.40
2010,08,11,01,39,12.40
2010,08,11,01,40,12.30
2010,08,11,01,41,12.40
2010,08,11,01,42,12.40
2010,08,11,01,43,12.40
2010,08,11,01,44,12.40
2010,08,11,01,45,12.40
2010,08,11,01,46,12.50
2010,08,11,01,47,12.50
2010,08,11,01,48,12.50
2010,08,11,01,49,12.60
2010,08,11,01,50,12.60
2010,08,11,01,51,12.60
2010,08,11,01,52,12.70
2010,08,11,01,53,12.70
2010,08,11,01,54,12.70
2010,08,11,01,55,12.70
2010,08,11,01,56,12.70
2010,08,11,01,57,12.80
2010,08,11,01,58,12.80
2010,08,11,01,59,12.80
2010,08,11,02,00,12.80
2010,08,11,02,01,12.80
2010,08,11,02,02,12.80
2010,08,11,02,03,12.80
2010,08,11,02,04,12.80
2010,08,11,02,05,12.90
2010,08,11,02,06,12.90
2010,08,11,02,07,13.00
2010,08,11,02,08,13.10
2010,08,11,02,09,13.10
2010,08,11,02,10,13.20
2010,08,11,02,11,13.30
2010,08,11,02,12,13.30
2010,08,11,02,13,13.40
2010,08,11,02,14,13.50
2010,08,11,02,15,13.50
2010,08,11,02,16,13.60
2010,08,11,02,17,13.60
2010,08,11,02,18,13.70
2010,08,11,02,19,13.80
2010,08,11,02,20,13.80
2010,08,11,02,21,13.90
2010,08,11,02,22,14.00
2010,08,11,02,23,14.10
2010,08,11,02,24,14.20
2010,08,11,02,25,14.30
2010,08,11,02,26,14.40
2010,08,11,02,27,14.50
2010,08,11,02,28,14.60
2010,08,11,02,29,14.60
2010,08,11,02,30,14.70
2010,08,11,02,31,14.70
2010,08,11,02,32,14.80
2010,08,11,02,33,14.80
2010,08,11,02,34,14.80
2010,08,11,02,35,14.90
2010,08,11,02,36,14.90
2010,08,11,02,37,14.90
2010,08,11,02,38,15.00
2010,08,11,02,39,15.00
2010,08,11,02,40,15.00
2010,08,11,02,41,15.10
2010,08,11,02,42,15.10
2010,08,11,02,43,15.10
2010,08,11,02,44,15.10
2010,08,11,02,45,15.10
2010,08,11,02,46,15.20
2010,08,11,02,47,15.20
2010,08,11,02,48,15.30
2010,08,11,02,49,15.30
2010,08,11,02,50,15.30
2010,08,11,02,51,15.40
2010,08,11,02,52,15.40
2010,08,11,02,53,15.40
2010,08,11,02,54,15.50
2010,08,11,02,55,15.50
2010,08,11,02,56,15.50
2010,08,11,02,57,15.50
2010,08,11,02,58,15.50
2010,08,11,02,59,15.50
2010,08,11,03,00,15.60
2010,08,11,03,01,15.60
2010,08,11,03,02,15.60
2010,08,11,03,03,15.60
2010,08,11,03,04,15.60
2010,08,11,03,05,15.70
2010,08,11,03,06,15.70
2010,08,11,03,07,15.70
2010,08,11,03,08,15.80
2010,08,11,03,09,15.80
2010,08,11,03,10,15.80
2010,08,11,03,11,15.80
2010,08,11,03,12,15.80
2010,08,11,03,13,15.80
2010,08,11,03,14,15.80
2010,08,11,03,15,15.90
2010,08,11,03,16,15.90
2010,08,11,03,17,15.90
2010,08,11,03,18,15.90
2010,08,11,03,19,15.90
2010,08,11,03,20,15.90
2010,08,11,03,21,15.90
2010,08,11,03,22,15.90
2010,08,11,03,23,15.90
2010,08,11,03,24,15.90
2010,08,11,03,25,16.00
2010,08,11,03,26,16.00
2010,08,11,03,27,16.00
2010,08,11,03,28,16.00
2010,08,11,03,29,16.00
2010,08,11,03,30,16.00
2010,08,11,03,31,16.00
2010,08,11,03,32,16.00
2010,08,11,03,33,16.00
2010,08,11,03,34,16.00
2010,08,11,03,35,16.00
2010,08,11,03,36,16.00
2010,08,11,03,37,16.10
2010,08,11,03,38,16.10
2010,08,11,03,39,16.10
2010,08,11,03,40,16.10
2010,08,11,03,41,16.20
2010,08,11,03,42,16.20
2010,08,11,03,43,16.20
2010,08,11,03,44,16.20
2010,08,11,03,45,16.10
2010,08,11,03,46,16.10
2010,08,11,03,47,16.10
2010,08,11,03,48,16.10
2010,08,11,03,49,16.10
2010,08,11,03,50,16.10
2010,08,11,03,51,16.10
2010,08,11,03,52,16.00
2010,08,11,03,53,16.00
2010,08,11,03,54,16.00
2010,08,11,03,55,16.00
2010,08,11,03,56,16.00
2010,08,11,03,57,15.90
2010,08,11,03,58,15.90
2010,08,11,03,59,15.90
2010,08,11,04,00,15.90
2010,08,11,04,01,15.90
2010,08,11,04,02,15.90
2010,08,11,04,03,15.90
2010,08,11,04,04,15.90
2010,08,11,04,05,15.90
2010,08,11,04,06,15.90
2010,08,11,04,07,15.90
2010,08,11,04,08,15.90
2010,08,11,04,09,15.90
2010,08,11,04,10,15.90
2010,08,11,04,11,15.90
2010,08,11,04,12,15.90
2010,08,11,04,13,15.90
2010,08,11,04,14,15.90
2010,08,11,04,15,15.90
2010,08,11,04,16,15.90
2010,08,11,04,17,16.00
2010,08,11,04,18,16.00
2010,08,11,04,19,16.00
2010,08,11,04,20,16.10
2010,08,11,04,21,16.10
2010,08,11,04,22,16.10
2010,08,11,04,23,16.10
2010,08,11,04,24,16.10
2010,08,11,04,25,16.20
2010,08,11,04,26,16.20
2010,08,11,04,27,16.20
2010,08,11,04,28,16.20
2010,08,11,04,29,16.30
2010,08,11,04,30,16.30
2010,08,11,04,31,16.30
2010,08,11,04,32,16.40
2010,08,11,04,33,16.40
2010,08,11,04,34,16.50
2010,08,11,04,35,16.50
2010,08,11,04,36,16.50
2010,08,11,04,37,16.50
2010,08,11,04,38,16.50
2010,08,11,04,39,16.50
2010,08,11,04,40,16.50
2010,08,11,04,41,16.40
2010,08,11,04,42,16.40
2010,08,11,04,43,16.40
2010,08,11,04,44,16.40
2010,08,11,04,45,16.30
2010,08,11,04,46,16.30
2010,08,11,04,47,16.30
2010,08,11,04,48,16.20
2010,08,11,04,49,16.20
2010,08,11,04,50,16.20
2010,08,11,04,51,16.10
2010,08,11,04,52,16.10
2010,08,11,04,53,16.00
2010,08,11,04,54,16.00
2010,08,11,04,55,16.00
2010,08,11,04,56,15.90
2010,08,11,04,57,15.90
2010,08,11,04,58,15.80
2010,08,11,04,59,15.80
2010,08,11,05,00,15.70
2010,08,11,05,01,15.70
2010,08,11,05,02,15.70
2010,08,11,05,03,15.60
2010,08,11,05,04,15.60
2010,08,11,05,05,15.60
2010,08,11,05,06,15.50
2010,08,11,05,07,15.50
2010,08,11,05,08,15.40
2010,08,11,05,09,15.40
2010,08,11,05,10,15.30
2010,08,11,05,11,15.30
2010,08,11,05,12,15.30
2010,08,11,05,13,15.30
2010,08,11,05,14,15.30
2010,08,11,05,15,15.20
2010,08,11,05,16,15.20
2010,08,11,05,17,15.20
2010,08,11,05,18,15.20
2010,08,11,05,19,15.10
2010,08,11,05,20,15.10
2010,08,11,05,21,15.10
2010,08,11,05,22,15.00
2010,08,11,05,23,14.90
2010,08,11,05,24,14.90
2010,08,11,05,25,14.90
2010,08,11,05,26,14.80
2010,08,11,05,27,14.80
2010,08,11,05,28,14.70
2010,08,11,05,29,14.70
2010,08,11,05,30,14.60
2010,08,11,05,31,14.60
2010,08,11,05,32,14.50
2010,08,11,05,33,14.50
2010,08,11,05,34,14.50
2010,08,11,05,35,14.50
2010,08,11,05,36,14.50
2010,08,11,05,37,14.40
2010,08,11,05,38,14.40
2010,08,11,05,39,14.40
2010,08,11,05,40,14.40
2010,08,11,05,41,14.40
2010,08,11,05,42,14.40
2010,08,11,05,43,14.30
2010,08,11,05,44,14.30
2010,08,11,05,45,14.30
2010,08,11,05,46,14.20
2010,08,11,05,47,14.20
2010,08,11,05,48,14.20
2010,08,11,05,49,14.10
2010,08,11,05,50,14.10
2010,08,11,05,51,14.10
2010,08,11,05,52,14.00
2010,08,11,05,53,14.00
2010,08,11,05,54,13.90
2010,08,11,05,55,13.90
2010,08,11,05,56,13.80
2010,08,11,05,57,13.80
2010,08,11,05,58,13.80
2010,08,11,05,59,13.80
2010,08,11,06,00,13.80
2010,08,11,06,01,13.70
2010,08,11,06,02,13.70
2010,08,11,06,03,13.70
2010,08,11,06,04,13.70
2010,08,11,06,05,13.70
2010,08,11,06,06,13.70
2010,08,11,06,07,13.70
2010,08,11,06,08,13.60
2010,08,11,06,09,13.60
2010,08,11,06,10,13.60
2010,08,11,06,11,13.60
2010,08,11,06,12,13.50
2010,08,11,06,13,13.40
2010,08,11,06,14,13.40
2010,08,11,06,15,13.40
2010,08,11,06,16,13.30
2010,08,11,06,17,13.30
2010,08,11,06,18,13.30
2010,08,11,06,19,13.30
2010,08,11,06,20,13.30
2010,08,11,06,21,13.30
2010,08,11,06,22,13.30
2010,08,11,06,23,13.30
2010,08,11,06,24,13.30
2010,08,11,06,25,13.30
2010,08,11,06,26,13.30
2010,08,11,06,27,13.30
2010,08,11,06,28,13.30
2010,08,11,06,29,13.30
2010,08,11,06,30,13.30
2010,08,11,06,31,13.30
2010,08,11,06,32,13.30
2010,08,11,06,33,13.40
2010,08,11,06,34,13.40
2010,08,11,06,35,13.40
2010,08,11,06,36,13.50
2010,08,11,06,37,13.50
2010,08,11,06,38,13.60
2010,08,11,06,39,13.60
2010,08,11,06,40,13.70
2010,08,11,06,41,13.70
2010,08,11,06,42,13.70
2010,08,11,06,43,13.70
2010,08,11,06,44,13.80
2010,08,11,06,45,13.80
2010,08,11,06,46,13.70
2010,08,11,06,47,13.70
2010,08,11,06,48,13.70
2010,08,11,06,49,13.70
2010,08,11,06,50,13.70
2010,08,11,06,51,13.70
2010,08,11,06,52,13.70
2010,08,11,06,53,13.70
2010,08,11,06,54,13.80
2010,08,11,06,55,13.80
2010,08,11,06,56,13.80
2010,08,11,06,57,13.90
2010,08,11,06,58,14.00
2010,08,11,06,59,14.00
2010,08,11,07,00,14.10
2010,08,11,07,01,14.10
2010,08,11,07,02,14.20
2010,08,11,07,03,14.20
2010,08,11,07,04,14.20
2010,08,11,07,05,14.20
2010,08,11,07,06,14.20
2010,08,11,07,07,14.20
2010,08,11,07,08,14.30
2010,08,11,07,09,14.30
2010,08,11,07,10,14.30
2010,08,11,07,11,14.40
2010,08,11,07,12,14.40
2010,08,11,07,13,14.40
2010,08,11,07,14,14.50
2010,08,11,07,15,14.60
2010,08,11,07,16,14.60
2010,08,11,07,17,14.70
2010,08,11,07,18,14.80
2010,08,11,07,19,14.90
2010,08,11,07,20,14.90
2010,08,11,07,21,15.00
2010,08,11,07,22,15.20
2010,08,11,07,23,15.20
2010,08,11,07,24,15.30
2010,08,11,07,25,15.40
2010,08,11,07,26,15.50
2010,08,11,07,27,15.60
2010,08,11,07,28,15.60
2010,08,11,07,29,15.70
2010,08,11,07,30,15.80
2010,08,11,07,31,15.80
2010,08,11,07,32,15.80
2010,08,11,07,33,15.90
2010,08,11,07,34,15.90
2010,08,11,07,35,15.90
2010,08,11,07,36,15.90
2010,08,11,07,37,16.00
2010,08,11,07,38,16.00
2010,08,11,07,39,16.00
2010,08,11,07,40,16.00
2010,08,11,07,41,16.10
2010,08,11,07,42,16.10
2010,08,11,07,43,16.10
2010,08,11,07,44,16.10
2010,08,11,07,45,16.20
2010,08,11,07,46,16.20
2010,08,11,07,47,16.20
2010,08,11,07,48,16.20
2010,08,11,07,49,16.20
2010,08,11,07,50,16.30
2010,08,11,07,51,16.30
2010,08,11,07,52,16.40
2010,08,11,07,53,16.40
2010,08,11,07,54,16.40
2010,08,11,07,55,16.50
2010,08,11,07,56,16.50
2010,08,11,07,57,16.60
2010,08,11,07,58,16.60
2010,08,11,07,59,16.70
2010,08,11,08,00,16.70
2010,08,11,08,01,16.70
2010,08,11,08,02,16.70
2010,08,11,08,03,16.80
2010,08,11,08,04,16.80
2010,08,11,08,05,16.80
2010,08,11,08,06,16.80
2010,08,11,08,07,16.90
2010,08,11,08,08,16.90
2010,08,11,08,09,16.90
2010,08,11,08,10,16.90
2010,08,11,08,11,16.90
2010,08,11,08,12,17.00
2010,08,11,08,13,17.00
2010,08,11,08,14,17.00
2010,08,11,08,15,17.10
2010,08,11,08,16,17.10
2010,08,11,08,17,17.10
2010,08,11,08,18,17.10
2010,08,11,08,19,17.20
2010,08,11,08,20,17.20
2010,08,11,08,21,17.20
2010,08,11,08,22,17.20
2010,08,11,08,23,17.30
2010,08,11,08,24,17.30
2010,08,11,08,25,17.30
2010,08,11,08,26,17.30
2010,08,11,08,27,17.30
2010,08,11,08,28,17.30
2010,08,11,08,29,17.30
2010,08,11,08,30,17.30
2010,08,11,08,31,17.30
2010,08,11,08,32,17.40
2010,08,11,08,33,17.40
2010,08,11,08,34,17.40
2010,08,11,08,35,17.40
2010,08,11,08,36,17.40
2010,08,11,08,37,17.50
2010,08,11,08,38,17.50
2010,08,11,08,39,17.50
2010,08,11,08,40,17.50
2010,08,11,08,41,17.60
2010,08,11,08,42,17.60
2010,08,11,08,43,17.60
2010,08,11,08,44,17.60
2010,08,11,08,45,17.60
2010,08,11,08,46,17.70
2010,08,11,08,47,17.70
2010,08,11,08,48,17.80
2010,08,11,08,49,17.80
2010,08,11,08,50,17.80
2010,08,11,08,51,17.80
2010,08,11,08,52,17.80
2010,08,11,08,53,17.80
2010,08,11,08,54,17.80
2010,08,11,08,55,17.90
2010,08,11,08,56,17.90
2010,08,11,08,57,18.00
2010,08,11,08,58,18.00
2010,08,11,08,59,18.00
2010,08,11,09,00,18.00
2010,08,11,09,01,18.00
2010,08,11,09,02,18.00
2010,08,11,09,03,18.00
2010,08,11,09,04,18.00
2010,08,11,09,05,18.00
2010,08,11,09,06,18.00
2010,08,11,09,07,18.00
2010,08,11,09,08,18.00
2010,08,11,09,09,18.10
2010,08,11,09,10,18.20
2010,08,11,09,11,18.20
2010,08,11,09,12,18.30
2010,08,11,09,13,18.30
2010,08,11,09,14,18.40
2010,08,11,09,15,18.40
2010,08,11,09,16,18.40
2010,08,11,09,17,18.50
2010,08,11,09,18,18.50
2010,08,11,09,19,18.50
2010,08,11,09,20,18.60
2010,08,11,09,21,18.60
2010,08,11,09,22,18.60
2010,08,11,09,23,18.60
2010,08,11,09,24,18.60
2010,08,11,09,25,18.60
2010,08,11,09,26,18.60
2010,08,11,09,27,18.60
2010,08,11,09,28,18.70
2010,08,11,09,29,18.80
2010,08,11,09,30,18.80
2010,08,11,09,31,18.80
2010,08,11,09,32,18.80
2010,08,11,09,33,18.80
2010,08,11,09,34,18.80
2010,08,11,09,35,18.80
2010,08,11,09,36,18.70
2010,08,11,09,37,18.70
2010,08,11,09,38,18.80
2010,08,11,09,39,18.80
2010,08,11,09,40,18.90
2010,08,11,09,41,18.90
2010,08,11,09,42,19.00
2010,08,11,09,43,19.10
2010,08,11,09,44,19.20
2010,08,11,09,45,19.20
2010,08,11,09,46,19.20
2010,08,11,09,47,19.20
2010,08,11,09,48,19.10
2010,08,11,09,49,19.10
2010,08,11,09,50,19.10
2010,08,11,09,51,19.10
2010,08,11,09,52,19.20
2010,08,11,09,53,19.20
2010,08,11,09,54,19.30
2010,08,11,09,55,19.20
2010,08,11,09,56,19.20
2010,08,11,09,57,19.10
2010,08,11,09,58,19.00
2010,08,11,09,59,19.00
2010,08,11,10,00,19.10
2010,08,11,10,01,19.10
2010,08,11,10,02,19.20
2010,08,11,10,03,19.20
2010,08,11,10,04,19.30
2010,08,11,10,05,19.30
2010,08,11,10,06,19.30
2010,08,11,10,07,19.30
2010,08,11,10,08,19.30
2010,08,11,10,09,19.30
2010,08,11,10,10,19.30
2010,08,11,10,11,19.30
2010,08,11,10,12,19.30
2010,08,11,10,13,19.30
2010,08,11,10,14,19.40
2010,08,11,10,15,19.40
2010,08,11,10,16,19.40
2010,08,11,10,17,19.50
2010,08,11,10,18,19.50
2010,08,11,10,19,19.50
2010,08,11,10,20,19.50
2010,08,11,10,21,19.60
2010,08,11,10,22,19.60
2010,08,11,10,23,19.60
2010,08,11,10,24,19.60
2010,08,11,10,25,19.60
2010,08,11,10,26,19.70
2010,08,11,10,27,19.70
2010,08,11,10,28,19.70
2010,08,11,10,29,19.70
2010,08,11,10,30,19.70
2010,08,11,10,31,19.70
2010,08,11,10,32,19.70
2010,08,11,10,33,19.70
2010,08,11,10,34,19.80
2010,08,11,10,35,19.80
2010,08,11,10,36,19.90
2010,08,11,10,37,19.90
2010,08,11,10,38,19.90
2010,08,11,10,39,19.90
2010,08,11,10,40,19.90
2010,08,11,10,41,19.90
2010,08,11,10,42,19.80
2010,08,11,10,43,19.80
2010,08,11,10,44,19.90
2010,08,11,10,45,19.90
2010,08,11,10,46,19.90
2010,08,11,10,47,20.00
2010,08,11,10,48,20.00
2010,08,11,10,49,20.00
2010,08,11,10,50,20.10
2010,08,11,10,51,20.10
2010,08,11,10,52,20.10
2010,08,11,10,53,20.10
2010,08,11,10,54,20.10
2010,08,11,10,55,20.10
2010,08,11,10,56,20.10
2010,08,11,10,57,20.10
2010,08,11,10,58,20.00
2010,08,11,10,59,20.00
2010,08,11,11,00,20.00
2010,08,11,11,01,20.00
2010,08,11,11,02,19.90
2010,08,11,11,03,20.00
2010,08,11,11,04,20.00
2010,08,11,11,05,20.00
2010,08,11,11,06,20.00
2010,08,11,11,07,20.00
2010,08,11,11,08,20.00
2010,08,11,11,09,20.00
2010,08,11,11,10,20.10
2010,08,11,11,11,20.10
2010,08,11,11,12,20.10
2010,08,11,11,13,20.20
2010,08,11,11,14,20.30
2010,08,11,11,15,20.30
2010,08,11,11,16,20.20
2010,08,11,11,17,20.20
2010,08,11,11,18,20.10
2010,08,11,11,19,20.10
2010,08,11,11,20,20.10
2010,08,11,11,21,20.10
2010,08,11,11,22,20.20
2010,08,11,11,23,20.20
2010,08,11,11,24,20.30
2010,08,11,11,25,20.30
2010,08,11,11,26,20.30
2010,08,11,11,27,20.30
2010,08,11,11,28,20.30
2010,08,11,11,29,20.30
2010,08,11,11,30,20.30
2010,08,11,11,31,20.30
2010,08,11,11,32,20.30
2010,08,11,11,33,20.30
2010,08,11,11,34,20.30
2010,08,11,11,35,20.30
2010,08,11,11,36,20.30
2010,08,11,11,37,20.40
2010,08,11,11,38,20.30
2010,08,11,11,39,20.30
2010,08,11,11,40,20.20
2010,08,11,11,41,20.20
2010,08,11,11,42,20.10
2010,08,11,11,43,20.10
2010,08,11,11,44,20.10
2010,08,11,11,45,20.10
2010,08,11,11,46,20.10
2010,08,11,11,47,20.10
2010,08,11,11,48,20.10
2010,08,11,11,49,20.20
2010,08,11,11,50,20.20
2010,08,11,11,51,20.20
2010,08,11,11,52,20.20
2010,08,11,11,53,20.20
2010,08,11,11,54,20.20
2010,08,11,11,55,20.30
2010,08,11,11,56,20.30
2010,08,11,11,57,20.30
2010,08,11,11,58,20.20
2010,08,11,11,59,20.20
2010,08,11,12,00,20.10
2010,08,11,12,01,20.10
2010,08,11,12,02,20.10
2010,08,11,12,03,20.20
2010,08,11,12,04,20.20
2010,08,11,12,05,20.30
2010,08,11,12,06,20.40
2010,08,11,12,07,20.40
2010,08,11,12,08,20.40
2010,08,11,12,09,20.40
2010,08,11,12,10,20.30
2010,08,11,12,11,20.30
2010,08,11,12,12,20.30
2010,08,11,12,13,20.30
2010,08,11,12,14,20.30
2010,08,11,12,15,20.20
2010,08,11,12,16,20.20
2010,08,11,12,17,20.30
2010,08,11,12,18,20.30
2010,08,11,12,19,20.30
2010,08,11,12,20,20.30
2010,08,11,12,21,20.20
2010,08,11,12,22,20.10
2010,08,11,12,23,20.10
2010,08,11,12,24,20.10
2010,08,11,12,25,20.10
2010,08,11,12,26,20.10
2010,08,11,12,27,20.10
2010,08,11,12,28,20.00
2010,08,11,12,29,20.10
2010,08,11,12,30,20.10
2010,08,11,12,31,20.10
2010,08,11,12,32,20.20
2010,08,11,12,33,20.30
2010,08,11,12,34,20.40
2010,08,11,12,35,20.50
2010,08,11,12,36,20.50
2010,08,11,12,37,20.60
2010,08,11,12,38,20.60
2010,08,11,12,39,20.60
2010,08,11,12,40,20.60
2010,08,11,12,41,20.70
2010,08,11,12,42,20.70
2010,08,11,12,43,20.80
2010,08,11,12,44,20.80
2010,08,11,12,45,20.90
2010,08,11,12,46,20.90
2010,08,11,12,47,20.90
2010,08,11,12,48,20.80
2010,08,11,12,49,20.80
2010,08,11,12,50,20.70
2010,08,11,12,51,20.70
2010,08,11,12,52,20.70
2010,08,11,12,53,20.70
2010,08,11,12,54,20.80
2010,08,11,12,55,20.80
2010,08,11,12,56,20.80
2010,08,11,12,57,20.80
2010,08,11,12,58,20.90
2010,08,11,12,59,21.00
2010,08,11,13,00,21.00
2010,08,11,13,01,21.10
2010,08,11,13,02,21.10
2010,08,11,13,03,21.00
2010,08,11,13,04,21.00
2010,08,11,13,05,21.00
2010,08,11,13,06,21.00
2010,08,11,13,07,21.00
2010,08,11,13,08,21.10
2010,08,11,13,09,21.20
2010,08,11,13,10,21.20
2010,08,11,13,11,21.20
2010,08,11,13,12,21.30
2010,08,11,13,13,21.30
2010,08,11,13,14,21.40
2010,08,11,13,15,21.40
2010,08,11,13,16,21.40
2010,08,11,13,17,21.40
2010,08,11,13,18,21.40
2010,08,11,13,19,21.30
2010,08,11,13,20,21.20
2010,08,11,13,21,21.10
2010,08,11,13,22,21.00
2010,08,11,13,23,21.00
2010,08,11,13,24,20.90
2010,08,11,13,25,20.90
2010,08,11,13,26,20.80
2010,08,11,13,27,20.80
2010,08,11,13,28,20.80
2010,08,11,13,29,20.80
2010,08,11,13,30,20.90
2010,08,11,13,31,20.90
2010,08,11,13,32,21.00
2010,08,11,13,33,21.10
2010,08,11,13,34,21.20
2010,08,11,13,35,21.30
2010,08,11,13,36,21.40
2010,08,11,13,37,21.40
2010,08,11,13,38,21.40
2010,08,11,13,39,21.40
2010,08,11,13,40,21.40
2010,08,11,13,41,21.40
2010,08,11,13,42,21.40
2010,08,11,13,43,21.40
2010,08,11,13,44,21.40
2010,08,11,13,45,21.40
2010,08,11,13,46,21.40
2010,08,11,13,47,21.40
2010,08,11,13,48,21.30
2010,08,11,13,49,21.30
2010,08,11,13,50,21.30
2010,08,11,13,51,21.20
2010,08,11,13,52,21.20
2010,08,11,13,53,21.30
2010,08,11,13,54,21.30
2010,08,11,13,55,21.40
2010,08,11,13,56,21.40
2010,08,11,13,57,21.40
2010,08,11,13,58,21.50
2010,08,11,13,59,21.50
2010,08,11,14,00,21.50
2010,08,11,14,01,21.40
2010,08,11,14,02,21.40
2010,08,11,14,03,21.40
2010,08,11,14,04,21.40
2010,08,11,14,05,21.40
2010,08,11,14,06,21.40
2010,08,11,14,07,21.50
2010,08,11,14,08,21.50
2010,08,11,14,09,21.60
2010,08,11,14,10,21.60
2010,08,11,14,11,21.60
2010,08,11,14,12,21.50
2010,08,11,14,13,21.40
2010,08,11,14,14,21.40
2010,08,11,14,15,21.50
2010,08,11,14,16,21.60
2010,08,11,14,17,21.70
2010,08,11,14,18,21.80
2010,08,11,14,19,21.80
2010,08,11,14,20,21.70
2010,08,11,14,21,21.70
2010,08,11,14,22,21.70
2010,08,11,14,23,21.60
2010,08,11,14,24,21.70
2010,08,11,14,25,21.70
2010,08,11,14,26,21.80
2010,08,11,14,27,21.80
2010,08,11,14,28,21.90
2010,08,11,14,29,21.80
2010,08,11,14,30,21.80
2010,08,11,14,31,21.80
2010,08,11,14,32,21.70
2010,08,11,14,33,21.70
2010,08,11,14,34,21.60
2010,08,11,14,35,21.60
2010,08,11,14,36,21.70
2010,08,11,14,37,21.70
2010,08,11,14,38,21.70
2010,08,11,14,39,21.70
2010,08,11,14,40,21.70
2010,08,11,14,41,21.60
2010,08,11,14,42,21.60
2010,08,11,14,43,21.60
2010,08,11,14,44,21.60
2010,08,11,14,45,21.60
2010,08,11,14,46,21.60
2010,08,11,14,47,21.60
2010,08,11,14,48,21.80
2010,08,11,14,49,21.90
2010,08,11,14,50,21.90
2010,08,11,14,51,22.00
2010,08,11,14,52,22.00
2010,08,11,14,53,21.90
2010,08,11,14,54,21.90
2010,08,11,14,55,21.90
2010,08,11,14,56,21.80
2010,08,11,14,57,21.80
2010,08,11,14,58,21.80
2010,08,11,14,59,21.80
2010,08,11,15,00,21.80
2010,08,11,15,01,21.80
2010,08,11,15,02,21.90
2010,08,11,15,03,21.90
2010,08,11,15,04,21.90
2010,08,11,15,05,21.90
2010,08,11,15,06,21.90
2010,08,11,15,07,21.80
2010,08,11,15,08,21.70
2010,08,11,15,09,21.70
2010,08,11,15,10,21.70
2010,08,11,15,11,21.70
2010,08,11,15,12,21.80
2010,08,11,15,13,21.80
2010,08,11,15,14,21.90
2010,08,11,15,15,21.90
2010,08,11,15,16,21.90
2010,08,11,15,17,21.90
2010,08,11,15,18,21.90
2010,08,11,15,19,21.90
2010,08,11,15,20,21.90
2010,08,11,15,21,22.00
2010,08,11,15,22,22.00
2010,08,11,15,23,22.00
2010,08,11,15,24,22.00
2010,08,11,15,25,22.10
2010,08,11,15,26,22.10
2010,08,11,15,27,22.20
2010,08,11,15,28,22.20
2010,08,11,15,29,22.20
2010,08,11,15,30,22.10
2010,08,11,15,31,22.20
2010,08,11,15,32,22.20
2010,08,11,15,33,22.30
2010,08,11,15,34,22.30
2010,08,11,15,35,22.40
2010,08,11,15,36,22.40
2010,08,11,15,37,22.30
2010,08,11,15,38,22.30
2010,08,11,15,39,22.20
2010,08,11,15,40,22.20
2010,08,11,15,41,22.20
2010,08,11,15,42,22.20
2010,08,11,15,43,22.20
2010,08,11,15,44,22.20
2010,08,11,15,45,22.30
2010,08,11,15,46,22.20
2010,08,11,15,47,22.20
2010,08,11,15,48,22.20
2010,08,11,15,49,22.30
2010,08,11,15,50,22.30
2010,08,11,15,51,22.30
2010,08,11,15,52,22.30
2010,08,11,15,53,22.40
2010,08,11,15,54,22.40
2010,08,11,15,55,22.40
2010,08,11,15,56,22.30
2010,08,11,15,57,22.30
2010,08,11,15,58,22.30
2010,08,11,15,59,22.40
2010,08,11,16,00,22.40
2010,08,11,16,01,22.40
2010,08,11,16,02,22.40
2010,08,11,16,03,22.40
2010,08,11,16,04,22.40
2010,08,11,16,05,22.40
2010,08,11,16,06,22.30
2010,08,11,16,07,22.40
2010,08,11,16,08,22.40
2010,08,11,16,09,22.40
2010,08,11,16,10,22.40
2010,08,11,16,11,22.40
2010,08,11,16,12,22.50
2010,08,11,16,13,22.50
2010,08,11,16,14,22.60
2010,08,11,16,15,22.60
2010,08,11,16,16,22.60
2010,08,11,16,17,22.60
2010,08,11,16,18,22.70
2010,08,11,16,19,22.70
2010,08,11,16,20,22.80
2010,08,11,16,21,22.80
2010,08,11,16,22,22.90
2010,08,11,16,23,23.00
2010,08,11,16,24,23.00
2010,08,11,16,25,23.10
2010,08,11,16,26,23.20
2010,08,11,16,27,23.30
2010,08,11,16,28,23.30
2010,08,11,16,29,23.30
2010,08,11,16,30,23.30
2010,08,11,16,31,23.40
2010,08,11,16,32,23.40
2010,08,11,16,33,23.30
2010,08,11,16,34,23.30
2010,08,11,16,35,23.30
2010,08,11,16,36,23.30
2010,08,11,16,37,23.30
2010,08,11,16,38,23.30
2010,08,11,16,39,23.30
2010,08,11,16,40,23.30
2010,08,11,16,41,23.30
2010,08,11,16,42,23.30
2010,08,11,16,43,23.30
2010,08,11,16,44,23.30
2010,08,11,16,45,23.30
2010,08,11,16,46,23.40
2010,08,11,16,47,23.50
2010,08,11,16,48,23.50
2010,08,11,16,49,23.60
2010,08,11,16,50,23.60
2010,08,11,16,51,23.70
2010,08,11,16,52,23.80
2010,08,11,16,53,23.90
2010,08,11,16,54,24.00
2010,08,11,16,55,24.10
2010,08,11,16,56,24.10
2010,08,11,16,57,24.00
2010,08,11,16,58,23.90
2010,08,11,16,59,23.80
2010,08,11,17,00,23.70
2010,08,11,17,01,23.70
2010,08,11,17,02,23.70
2010,08,11,17,03,23.70
2010,08,11,17,04,23.80
2010,08,11,17,05,23.80
2010,08,11,17,06,23.80
2010,08,11,17,07,23.80
2010,08,11,17,08,23.80
2010,08,11,17,09,23.80
2010,08,11,17,10,23.80
2010,08,11,17,11,23.80
2010,08,11,17,12,23.80
2010,08,11,17,13,23.80
2010,08,11,17,14,23.80
2010,08,11,17,15,23.80
2010,08,11,17,16,23.80
2010,08,11,17,17,23.80
2010,08,11,17,18,23.80
2010,08,11,17,19,23.70